Location: Unspecified
(0.0000°N, 0.0000°E)
Time: 05:31:04
(UTC+00:00)

STARLINK-1316 - Visible Passes

Search period start: 14 February 2026 00:00
Search period end: 24 February 2026 00:00
Orbit: 474 x 476 km, 53.2° (Epoch: 10 February)

Date Brightness Start Highest point End Pass type
(mag) Time Alt. Az. Time Alt. Az. Time Alt. Az.
14 Feb 6.4 05:21:57 10° SSE 05:24:23 17° SE 05:26:48 10° E visible
14 Feb 6.2 18:44:27 10° WNW 18:47:17 21° SW 18:50:08 10° S visible
15 Feb 6.5 04:53:02 10° SSE 04:54:54 13° SE 04:56:46 10° E visible
16 Feb 6.7 04:24:34 10° SE 04:25:25 11° SE 04:26:16 10° ESE visible
17 Feb 3.9 05:30:13 10° SW 05:33:40 37° NW 05:37:05 10° NNE visible
18 Feb 3.5 05:03:30 41° W 05:04:11 47° WNW 05:07:45 10° NNE visible
19 Feb 5.6 04:37:28 17° NNE 04:37:28 17° NNE 04:38:22 10° NNE visible
